User: anonymous   Login
Location: İstanbul
(41.0082°N, 28.9784°E)
Time: 03:25:20
(UTC+03:00)
Language:

XW-2C - Orbit

View from above orbital plane
View from above orbital plane
View from above satellite
View from above satellite

Ground track
Ground track

The orbit data is extracted from the following two-line orbital elements,

1 40906U 15049H   24109.62764382  .00036825  00000-0  96863-3 0  9991
2 40906  97.4842 125.0472 0010686 145.6626 214.5312 15.38425395475309
Epoch (UTC): 18 April 2024 15:03:48
Eccentricity: 0.0010686
inclination: 97.4842°
perigee height: 443 km
apogee height: 458 km
right ascension of ascending node: 125.0472°
argument of perigee: 145.6626°
revolutions per day: 15.38425395
mean anomaly at epoch: 214.5312°
orbit number at epoch: 47530

The dashed part of the orbit path shows where the satellite is in the earth's shadow,  

DLR